FW1915 Weather Reports


time (UTC)temp
C
wind
direction
speed
KPH
gust
KPH
rain 1hr
cm
rain 24hr
cm
rain mn
cm
humidity
%
barometer
mb
20260506103332 -17 0.0 0.0 0.00 0.00 0.00 996.6
20260506103051 -17 182 0.0 0.0 0.00 0.00 0.00 996.7
20260506102333 15 182 0.0 0.0 0.00 0.00 0.00 79 996.6
20260506102052 15 182 0.0 0.0 0.00 0.00 0.00 79 996.6
20260506101332 15 182 0.0 0.0 0.00 0.00 0.00 79 996.5
20260506100845 15 182 0.0 0.0 0.00 0.00 0.00 79 996.4
20260506100335 15 182 0.0 0.0 0.00 0.00 0.00 79 996.5
20260506095833 15 182 0.0 0.0 0.00 0.00 0.00 79 996.5
20260506095333 15 182 0.0 0.0 0.00 0.00 0.00 78 996.5
20260506094833 15 182 0.0 0.0 0.00 0.00 0.00 78 996.5
20260506094331 15 182 0.0 0.0 0.00 0.00 0.00 78 996.4
20260506093831 15 182 0.0 0.0 0.00 0.00 0.00 78 996.3
20260506093331 15 182 0.0 0.0 0.00 0.00 0.00 77 996.3
20260506092832 16 182 0.0 0.0 0.00 0.00 0.00 77 996.3
20260506092552 16 182 0.0 0.0 0.00 0.00 0.00 77 996.3
20260506091832 16 182 0.0 0.0 0.00 0.00 0.00 77 996.2
20260506091331 16 182 0.0 0.0 0.00 0.00 0.00 76 996.2
20260506090831 16 182 0.0 0.0 0.00 0.00 0.00 76 996.3
20260506090331 16 182 0.0 0.0 0.00 0.00 0.00 75 996.2
20260506085831 16 182 0.0 0.0 0.00 0.00 0.00 75 996.2
20260506085329 -17 0.0 0.0 0.00 0.00 0.00 996.2
20260506084829 16 182 0.0 0.0 0.00 0.00 0.00 75 996.3
20260506084552 16 182 0.0 0.0 0.00 0.00 0.00 74 996.4
20260506083828 16 182 0.0 0.0 0.00 0.00 0.00 74 996.4
20260506083328 16 182 0.0 0.0 0.00 0.00 0.00 74 996.3
20260506082829 16 182 0.0 0.0 0.00 0.00 0.00 74 996.3
20260506082328 16 182 0.0 0.0 0.00 0.00 0.00 74 996.2
20260506081828 16 182 0.0 0.0 0.00 0.00 0.00 74 996.3
20260506081328 16 182 0.0 0.0 0.00 0.00 0.00 74 996.3
20260506080828 16 182 0.0 0.0 0.00 0.00 0.00 74 996.2
20260506080327 16 182 0.0 0.0 0.00 0.00 0.00 73 996.1
20260506073325 16 182 0.0 0.0 0.00 0.00 0.00 73 996.0
20260506072825 16 182 0.0 0.0 0.00 0.00 0.00 73 996.0
20260506072324 -17 0.0 0.0 0.00 0.00 0.00 995.9
20260506071825 16 182 0.0 0.0 0.00 0.00 0.00 73 995.8
20260506071546 16 182 0.0 0.0 0.00 0.00 0.00 73 995.8
20260506070823 -17 182 0.0 0.0 0.00 0.00 0.00 995.8
20260506070323 16 182 0.0 0.0 0.00 0.00 0.00 74 995.7
20260506062323 16 182 0.0 0.0 0.00 0.00 0.00 75 995.5
20260506061821 16 182 0.0 0.0 0.00 0.00 0.00 75 995.6
20260506061544 16 182 0.0 0.0 0.00 0.00 0.00 76 995.5
20260506060822 16 182 0.0 0.0 0.00 0.00 0.00 76 995.6
20260506060320 -17 182 0.0 0.0 0.00 0.00 0.00 995.5
20260506051319 16 182 0.0 0.0 0.00 0.00 0.00 73 994.9
20260506050818 16 182 0.0 0.0 0.00 0.00 0.00 73 994.9
20260506050318 16 182 0.0 0.0 0.00 0.00 0.00 71 994.8
20260506044818 16 182 0.0 0.0 0.00 0.00 0.00 72 994.6
20260506044318 16 182 0.0 0.0 0.00 0.00 0.00 71 994.7
20260506043818 16 182 0.0 0.0 0.00 0.00 0.00 70 994.6
20260506043317 16 182 0.0 0.0 0.00 0.00 0.00 69 994.5
20260506042817 17 182 0.0 0.0 0.00 0.00 0.00 69 994.5
20260506042538 17 182 0.0 0.0 0.00 0.00 0.00 69 994.3
20260506041817 17 182 0.0 0.0 0.00 0.00 0.00 68 994.2
20260506041317 17 182 0.0 0.0 0.00 0.00 0.00 68 994.2
20260506040817 17 182 0.0 0.0 0.00 0.00 0.00 68 994.1
20260506040315 17 182 0.0 0.0 0.00 0.00 0.00 68 994.1
20260506035815 17 182 0.0 0.0 0.00 0.00 0.00 68 994.0
20260506035315 17 182 0.0 0.0 0.00 0.00 0.00 68 993.8
20260506034815 17 182 0.0 0.0 0.00 0.00 0.00 68 993.7
20260506034316 17 182 0.0 0.0 0.00 0.00 0.00 68 993.6
20260506033815 17 182 0.0 0.0 0.00 0.00 0.00 68 993.5
20260506033315 17 182 0.0 0.0 0.00 0.00 0.00 68 993.4
20260506032815 17 182 0.0 0.0 0.00 0.00 0.00 67 993.3
20260506032315 17 182 0.0 0.0 0.00 0.00 0.00 67 993.3
20260506031814 17 182 0.0 0.0 0.00 0.00 0.00 67 993.2
20260506031314 17 182 0.0 0.0 0.00 0.00 0.00 67 993.1
20260506031043 -17 182 0.0 0.0 0.00 0.00 0.00 993.1
20260506030313 17 182 0.0 0.0 0.00 0.00 0.00 67 992.9
20260506025814 17 183 0.0 0.0 0.00 0.00 0.00 67 992.8
20260506025314 17 166 0.0 0.0 0.00 0.00 0.00 66 992.8
20260506024813 17 166 0.0 0.0 0.00 0.00 0.00 66 992.6
20260506024313 17 166 0.0 0.0 0.00 0.00 0.00 66 992.6
20260506023813 17 166 0.0 0.0 0.00 0.00 0.00 66 992.6
20260506023310 -17 0.0 1.6 0.00 0.00 0.00 992.5
20260506023039 17 199 0.0 9.7 0.00 0.00 0.00 65 992.3
20260506022312 17 196 1.6 9.7 0.00 0.00 0.00 65 992.3
20260506021812 17 179 0.0 8.0 0.00 0.00 0.00 65 992.2
20260506021311 17 179 0.0 8.0 0.00 0.00 0.00 65 992.2
20260506020809 17 175 0.0 1.6 0.00 0.00 0.00 65 992.1
20260506020309 17 190 0.0 1.6 0.00 0.00 0.00 65 992.1
20260506015808 -17 0.0 0.0 0.00 0.00 0.00 991.9
20260506015309 17 144 0.0 0.0 0.00 0.00 0.00 65 992.0
20260506014810 17 144 0.0 0.0 0.00 0.00 0.00 64 992.0
20260506014530 18 141 0.0 4.8 0.00 0.00 0.00 64 991.9
20260506013809 18 141 0.0 4.8 0.00 0.00 0.00 64 991.8
20260506013534 18 204 0.0 0.0 0.00 0.00 0.00 64 991.8
20260506012807 -17 204 0.0 0.0 0.00 0.00 0.00 991.8
20260506012308 -17 0.0 0.0 0.00 0.00 0.00 991.6
20260506011805 -17 0.0 0.0 0.00 0.00 0.00 991.6
20260506011304 -17 0.0 0.0 0.00 0.00 0.00 991.7
20260506010803 -17 154 0.0 0.0 0.00 0.00 0.00 991.6
20260506010303 18 154 0.0 0.0 0.00 0.00 0.00 64 991.5
20260506005805 18 154 0.0 0.0 0.00 0.00 0.00 64 991.6
20260506005305 18 154 0.0 0.0 0.00 0.00 0.00 63 991.6
20260506004804 18 154 0.0 0.0 0.00 0.00 0.00 64 991.5
20260506004304 18 154 0.0 0.0 0.00 0.00 0.00 63 991.4
20260506004026 -17 0.0 0.0 0.00 0.00 0.00 991.4
20260506003302 18 147 0.0 0.0 0.00 0.00 0.00 63 991.4
20260506002803 18 147 0.0 0.0 0.00 0.00 0.00 64 991.3
20260506002305 18 154 0.0 4.8 0.00 0.00 0.00 64 991.5
20260506001802 18 154 0.0 4.8 0.00 0.00 0.00 63 991.3
20260506001304 18 151 0.0 0.0 0.00 0.00 0.00 63 991.3
20260506001254 18 145 0.0 0.0 0.00 0.00 0.00 63 991.3
20260506000258 -17 110 0.0 0.0 0.00 0.00 0.00 991.4
20260506000024 18 110 0.0 0.0 0.00 0.00 0.00 63 991.4
20260505235531 18 186 0.0 0.0 0.00 0.00 0.00 63 991.3
20260505234759 18 161 0.0 0.0 0.00 0.00 0.00 63 991.3
20260505234300 18 161 0.0 0.0 0.00 0.00 0.00 64 991.2
20260505233756 -17 0.0 0.0 0.00 0.00 0.00 991.2
20260505233257 -17 0.0 3.2 0.00 0.00 0.00 991.2
20260505232755 18 154 0.0 6.4 0.00 0.00 0.00 63 991.3
20260505232254 18 157 0.0 9.7 0.00 0.00 0.00 63 991.3
20260505231754 18 206 8.0 9.7 0.00 0.00 0.00 64 991.3
20260505231256 18 197 0.0 0.0 0.00 0.00 0.00 63 991.5
20260505230755 18 138 0.0 8.0 0.00 0.00 0.00 63 991.3
20260505230255 18 133 0.0 8.0 0.00 0.00 0.00 62 991.5
20260505230017 18 121 1.6 6.4 0.00 0.00 0.00 62 991.5
20260505225258 19 195 0.0 4.8 0.00 0.00 0.00 61 991.5
20260505224755 19 182 0.0 4.8 0.00 0.00 0.00 61 991.5
20260505224254 19 149 0.0 9.7 0.00 0.00 0.00 61 991.6
20260505223755 19 213 1.6 14.5 0.00 0.00 0.00 61 991.5
20260505223518 19 137 3.2 14.5 0.00 0.00 0.00 61 991.7
20260505222754 19 113 0.0 0.0 0.00 0.00 0.00 62 991.7
20260505222254 19 137 0.0 0.0 0.00 0.00 0.00 61 991.8
20260505221754 19 134 0.0 0.0 0.00 0.00 0.00 59 991.8
20260505221254 19 71 0.0 0.0 0.00 0.00 0.00 59 991.8
20260505220752 -17 0.0 0.0 0.00 0.00 0.00 991.8
20260505220253 19 141 0.0 0.0 0.00 0.00 0.00 59 991.9
20260505215806 19 140 0.0 0.0 0.00 0.00 0.00 61 991.8
20260505215253 19 137 0.0 0.0 0.00 0.00 0.00 61 991.8
20260505214753 20 166 0.0 0.0 0.00 0.00 0.00 59 991.9
20260505214253 20 217 0.0 0.0 0.00 0.00 0.00 56 991.9
20260505213753 20 162 0.0 0.0 0.00 0.00 0.00 56 992.0
20260505213252 20 162 0.0 0.0 0.00 0.00 0.00 56 992.1
20260505212752 20 158 0.0 0.0 0.00 0.00 0.00 57 992.0
20260505212252 20 10 0.0 0.0 0.00 0.00 0.00 57 992.1
20260505211749 -17 0.0 0.0 0.00 0.00 0.00 992.1
20260505211514 19 37 0.0 0.0 0.00 0.00 0.00 57 992.1
20260505210748 -17 0.0 0.0 0.00 0.00 0.00 992.2
20260505210249 18 244 0.0 0.0 0.00 0.00 0.00 59 992.3
20260505210232 18 244 0.0 0.0 0.00 0.00 0.00 60 992.3
20260505205249 19 168 0.0 0.0 0.00 0.00 0.00 61 992.4
20260505204749 18 227 0.0 0.0 0.00 0.00 0.00 61 992.3
20260505204249 18 227 0.0 0.0 0.00 0.00 0.00 62 992.4
20260505204011 18 227 0.0 0.0 0.00 0.00 0.00 61 992.4
20260505203248 18 227 0.0 0.0 0.00 0.00 0.00 63 992.5
20260505202749 18 189 0.0 0.0 0.00 0.00 0.00 63 992.5
20260505202248 18 149 0.0 0.0 0.00 0.00 0.00 63 992.5
20260505201751 18 158 0.0 0.0 0.00 0.00 0.00 62 992.6
20260505201735 18 165 0.0 0.0 0.00 0.00 0.00 63 992.7
20260505200748 18 175 0.0 0.0 0.00 0.00 0.00 63 992.8
20260505200248 18 175 0.0 0.0 0.00 0.00 0.00 64 992.8
20260505195747 17 173 0.0 0.0 0.00 0.00 0.00 65 992.8
20260505195248 17 175 0.0 0.0 0.00 0.00 0.00 64 992.9
20260505194748 17 175 0.0 0.0 0.00 0.00 0.00 64 992.8
20260505194509 17 175 0.0 0.0 0.00 0.00 0.00 64 992.9
20260505193747 17 148 0.0 0.0 0.00 0.00 0.00 64 992.8
20260505193508 17 195 0.0 0.0 0.00 0.00 0.00 63 992.9
20260505192747 18 200 0.0 0.0 0.00 0.00 0.00 64 993.0
20260505192246 18 200 0.0 0.0 0.00 0.00 0.00 64 993.1
20260505191746 18 254 0.0 0.0 0.00 0.00 0.00 63 993.1
20260505191244 -17 0.0 0.0 0.00 0.00 0.00 993.1
20260505190745 18 234 0.0 0.0 0.00 0.00 0.00 63 993.1
20260505190245 18 152 0.0 0.0 0.00 0.00 0.00 63 993.1
20260505185744 18 151 0.0 0.0 0.00 0.00 0.00 62 993.1
20260505185257 18 138 0.0 0.0 0.00 0.00 0.00 64 993.0
20260505185005 -17 0.0 0.0 0.00 0.00 0.00 993.1
20260505184508 17 188 0.0 0.0 0.00 0.00 0.00 67 993.1
20260505183743 17 188 0.0 0.0 0.00 0.00 0.00 71 993.0
20260505183243 16 188 0.0 0.0 0.00 0.00 0.00 71 993.1
20260505182742 16 147 0.0 0.0 0.00 0.00 0.00 70 993.3
20260505182501 16 140 0.0 0.0 0.00 0.00 0.00 70 993.3
20260505181742 16 140 0.0 0.0 0.00 0.00 0.00 71 993.3
20260505181242 16 133 0.0 0.0 0.00 0.00 0.00 74 993.2
20260505181000 16 131 0.0 0.0 0.00 0.00 0.00 74 993.2
20260505180241 15 120 0.0 0.0 0.00 0.00 0.00 75 993.2
20260505175741 -17 120 0.0 0.0 0.00 0.00 0.00 993.2
20260505175458 -17 121 0.0 0.0 0.00 0.00 0.00 993.2
20260505174740 15 121 0.0 0.0 0.00 0.00 0.00 74 993.2
20260505174239 -17 0.0 0.0 0.00 0.00 0.00 993.1
20260505173739 15 120 0.0 0.0 0.00 0.00 0.00 76 993.2
20260505173237 -17 0.0 0.0 0.00 0.00 0.00 993.1
20260505172957 14 120 0.0 0.0 0.00 0.00 0.00 80 993.2
20260505172237 14 120 0.0 0.0 0.00 0.00 0.00 80 993.2
20260505171737 14 212 0.0 0.0 0.00 0.00 0.00 81 993.2
20260505171237 14 212 0.0 0.0 0.00 0.00 0.00 82 993.2
20260505171222 14 212 0.0 0.0 0.00 0.00 0.00 83 993.2
20260505170237 14 212 0.0 0.0 0.00 0.00 0.00 83 993.2
20260505165737 13 212 0.0 0.0 0.00 0.00 0.00 83 993.2
20260505165234 14 212 0.0 0.0 0.00 0.00 0.00 84 993.1
20260505164737 13 212 0.0 0.0 0.00 0.00 0.00 85 993.1
20260505164719 -17 0.0 0.0 0.00 0.00 0.00 993.1
20260505163955 13 212 0.0 0.0 0.00 0.00 0.00 85 993.1
20260505163453 14 212 0.0 0.0 0.00 0.00 0.00 86 993.2
20260505162735 13 212 0.0 0.0 0.00 0.00 0.00 86 993.1
20260505162235 13 212 0.0 0.0 0.00 0.00 0.00 86 993.2
20260505161734 13 212 0.0 0.0 0.00 0.00 0.00 86 993.1
20260505161452 13 212 0.0 0.0 0.00 0.00 0.00 88 993.2
20260505160734 13 212 0.0 0.0 0.00 0.00 0.00 88 993.1
20260505160234 13 212 0.0 0.0 0.00 0.00 0.00 88 993.1
20260505153232 13 195 0.0 0.0 0.00 0.00 0.00 90 993.1
20260505152732 13 195 0.0 0.0 0.00 0.00 0.00 90 993.0
20260505152232 13 195 0.0 0.0 0.00 0.00 0.00 91 993.1
20260505151732 13 195 0.0 0.0 0.00 0.00 0.00 91 993.1
20260505151232 12 195 0.0 0.0 0.00 0.00 0.00 91 993.0
20260505150730 12 195 0.0 0.0 0.00 0.00 0.00 91 993.0
20260505150230 13 195 0.0 0.0 0.00 0.00 0.00 91 992.9
20260505140241 12 196 0.0 0.0 0.00 0.00 0.00 91 992.6
20260505130213 -17 0.0 0.0 0.00 0.00 0.00 992.1
20260505124709 -17 0.0 0.0 0.00 0.00 0.00 992.1
20260505124208 -17 0.0 0.0 0.00 0.00 0.00 992.1
20260505123707 -17 0.0 0.0 0.00 0.00 0.00 992.2
20260505123205 -17 0.0 0.0 0.00 0.00 0.00 992.1
20260505122705 -17 0.0 0.0 0.00 0.00 0.00 992.2
20260505122203 -17 0.0 0.0 0.00 0.00 0.00 992.1
20260505121702 -17 0.0 0.0 0.00 0.00 0.00 992.1
20260505121201 -17 0.0 0.0 0.00 0.00 0.00 992.1
20260505120918 -17 0.0 0.0 0.00 0.00 0.00 992.1
20260505120159 -17 0.0 0.0 0.00 0.00 0.00 992.1
20260505115657 -17 0.0 0.0 0.00 0.00 0.00 992.1
20260505115157 -17 0.0 0.0 0.00 0.00 0.00 992.0
20260505114655 -17 0.0 0.0 0.00 0.00 0.00 992.1
20260505114156 12 196 0.0 0.0 0.00 0.00 0.00 91 992.0
20260505113654 -17 0.0 0.0 0.00 0.00 0.00 992.1
20260505113152 -17 0.0 0.0 0.00 0.00 0.00 992.1
20260505112653 12 196 0.0 0.0 0.00 0.00 0.00 91 992.1
20260505112153 12 196 0.0 0.0 0.00 0.00 0.00 91 992.1
20260505111653 12 196 0.0 0.0 0.00 0.00 0.00 91 992.2
20260505111419 12 196 0.0 0.0 0.00 0.00 0.00 91 992.2
20260505110650 -17 0.0 0.0 0.00 0.00 0.00 992.1
20260505110151 12 195 0.0 0.0 0.00 0.00 0.00 91 992.1